Torna al catalogo

STARLINK-35125

AttivoComunicazioniSSO
NORAD 65534·PAYLOAD·🇺🇸 United States

Lanciato Sep 6, 2025 da Cape Canaveral Space Force Station

Loading…

Prossimi Passaggi (prossime 24 ore)

TLE

AggiornatoSource: CelesTrak SupGP

Epoca: Sep 14, 2026, 21:37 UTC

1 65534C 25200Q   26257.90118056 -.00017828  00000+0 -55356-3 0  2575
2 65534  97.2843 324.3913 0001049  88.7906 314.5729 15.33440742    10

Traccia STARLINK-35125 in tempo reale con AllMySat

Download on the App Store